TimeCST,TemperatureF,Dew PointF,Humidity,Sea Level PressureIn,VisibilityMPH,Wind Direction,Wind SpeedMPH,Gust SpeedMPH,PrecipitationIn,Events,Conditions,WindDirDegrees,DateUTC
12:53 AM,1.9,-2.9,80,30.32,10.0,WNW,10.4,-,N/A,,Partly Cloudy,300,2013-01-03 06:53:00
1:53 AM,1.4,-4.0,78,30.25,10.0,NW,8.1,-,N/A,,Clear,310,2013-01-03 07:53:00
2:53 AM,-0.0,-5.1,79,30.34,10.0,WNW,6.9,-,N/A,,Clear,300,2013-01-03 08:53:00
3:53 AM,-2.0,-7.1,79,30.36,10.0,WNW,8.1,-,N/A,,Clear,290,2013-01-03 09:53:00
4:53 AM,-2.9,-8.0,79,30.35,10.0,WSW,5.8,-,N/A,,Clear,250,2013-01-03 10:53:00
5:53 AM,-4.0,-9.4,78,30.28,10.0,West,3.5,-,N/A,,Clear,270,2013-01-03 11:53:00
6:12 AM,-2.2,-9.4,71,30.28,10.0,West,5.8,-,N/A,,Mostly Cloudy,260,2013-01-03 12:12:00
6:53 AM,1.9,-4.0,76,30.35,10.0,SSW,3.5,-,N/A,,Overcast,210,2013-01-03 12:53:00
7:53 AM,5.0,-0.9,76,30.35,10.0,Calm,Calm,-,N/A,,Overcast,0,2013-01-03 13:53:00
8:53 AM,7.0,1.0,77,30.32,9.0,SSE,5.8,-,N/A,,Overcast,160,2013-01-03 14:53:00
9:11 AM,8.6,1.4,73,30.24,1.8,SE,5.8,-,0.00,Snow,Light Snow,130,2013-01-03 15:11:00
9:26 AM,8.6,3.2,79,30.24,2.5,South,6.9,-,0.00,,Haze,180,2013-01-03 15:26:00
9:38 AM,8.6,3.2,79,30.24,3.0,South,8.1,-,0.00,,Haze,180,2013-01-03 15:38:00
9:53 AM,10.0,3.9,76,30.31,4.0,South,6.9,-,0.00,,Haze,180,2013-01-03 15:53:00
10:53 AM,12.0,6.1,77,30.29,6.0,South,9.2,-,N/A,,Haze,180,2013-01-03 16:53:00
11:53 AM,16.0,10.0,77,30.27,10.0,South,10.4,-,N/A,,Overcast,190,2013-01-03 17:53:00
12:53 PM,19.0,12.0,74,30.22,10.0,SSW,10.4,-,N/A,,Overcast,200,2013-01-03 18:53:00
1:51 PM,21.2,14.0,74,30.13,10.0,WSW,13.8,-,N/A,,Scattered Clouds,240,2013-01-03 19:51:00
1:53 PM,21.9,14.0,72,30.19,10.0,WSW,15.0,-,N/A,,Partly Cloudy,240,2013-01-03 19:53:00
2:53 PM,21.9,14.0,72,30.17,10.0,SSW,16.1,23.0,N/A,,Clear,210,2013-01-03 20:53:00
3:53 PM,21.9,14.0,72,30.16,10.0,SSW,16.1,-,N/A,,Clear,200,2013-01-03 21:53:00
4:53 PM,21.0,14.0,74,30.14,10.0,SSW,15.0,-,N/A,,Clear,200,2013-01-03 22:53:00
5:53 PM,19.0,12.9,77,30.12,10.0,South,15.0,-,N/A,,Clear,190,2013-01-03 23:53:00
6:53 PM,19.0,12.9,77,30.07,10.0,SSW,17.3,-,N/A,,Clear,200,2013-01-04 00:53:00
7:53 PM,19.9,14.0,78,30.04,10.0,SSW,16.1,-,N/A,,Clear,200,2013-01-04 01:53:00
8:53 PM,19.9,12.9,74,30.03,10.0,SSW,12.7,-,N/A,,Clear,200,2013-01-04 02:53:00
9:53 PM,21.0,12.9,71,30.01,10.0,SSW,13.8,-,N/A,,Clear,210,2013-01-04 03:53:00
10:53 PM,18.0,10.9,74,30.03,10.0,SSW,11.5,-,N/A,,Clear,210,2013-01-04 04:53:00
11:53 PM,21.0,12.0,68,30.01,10.0,SW,13.8,-,N/A,,Clear,220,2013-01-04 05:53:00